Simultaneous Nadir Overpasses (SNOs) Predictions

Prediction of SNOs between GOES-17 and TERRA Satellite Orbit:

Table of predicted SNOs for the next 14.0 days since TLE Epoch: 7/14/2024
Index Date Time (GOES-17) GOES-17 Lat,Lon TERRA Lat,Lon Distance(km) Time Diff (sec)
1 07/15/2024 16:38:50 0.00,-104.73 -0.32,-103.10 184.42 80
2 07/16/2024 04:58:51 -0.00,-104.71 -0.72,-107.97 371.42 80
3 07/18/2024 04:38:40 -0.01,-104.70 0.17,-103.74 108.49 80
4 07/18/2024 16:58:34 0.01,-104.73 0.83,-108.59 438.88 80
5 07/20/2024 16:43:43 0.00,-104.72 -0.09,-104.37 40.88 80
6 07/23/2024 04:46:11 0.00,-104.69 -0.09,-105.00 35.26 80
7 07/25/2024 04:25:59 0.01,-104.69 0.84,-100.77 445.15 80
8 07/25/2024 16:45:51 -0.01,-104.71 0.20,-105.61 102.01 80
9 07/27/2024 16:30:59 -0.01,-104.71 -0.70,-101.38 378.93 80
